Flag for Poland Weather past 2 weeks in Sosnowiec, Poland

Now
59 °F

Rain showers. Fog.


Feels Like: 58 °F
Forecast: 45 / 52 °F
Wind: 8 mph from West

Location: Katowice Airport

Current Time: Sep 22, 2014 at 2:43:33 AM

Latest Report: Sep 22, 2014 at 2:00 AM


Visibility: 2 mi

Pressure: 29.74 "Hg

Humidity: 100%

Dew point: 59 °F

Location of SosnowiecLocation

Historic Weather in Sosnowiec — Graph

°F

Sosnowiec temperature yesterday

Maximum temperature yesterday: 70 °F (at 4:30 PM)
Minimum temperature yesterday: 55 °F (at 1:00 AM)
Average temperature yesterday: 62 °F

Past Weeks' High & Low Weather Summary

 TemperatureHumidityPressure
High79 °F (Sep 8, 3:00 PM)100% (Sep 7, 4:30 AM)30.27 "Hg (Sep 7, 4:30 AM)
Low46 °F (Sep 13, 5:30 AM)38% (Sep 19, 1:00 PM)29.74 "Hg (Sep 22, 12:30 AM)
Average62 °F80%30.02 "Hg
* Reported Sep 7 1:00 AM — Sep 22 1:30 AM, Sosnowiec, Weather by CustomWeather, © 2014

Note: Actual official high and low records may vary slightly from our data, if they occured in-between our weather recording intervals... More about our weather records

Advertising

Sosnowiec weather history for previous 24 hours

 ConditionsComfort  
Time TempWeatherWind HumidityBarometerVisibility
1:30 AM
Sep 22
59 °FSprinkles. Fog.7 mph100%29.74 "Hg1 mi
1:00 AM59 °FSprinkles. Fog.5 mph100%29.74 "Hg2 mi
12:30 AM59 °FFog.5 mph100%29.74 "Hg2 mi
12:00 AM59 °FSprinkles. Fog.5 mph100%29.77 "Hg2 mi
11:30 PM
Sep 21
59 °FSprinkles. Passing clouds.5 mph94%29.77 "Hg4 mi
11:00 PM61 °FSprinkles. Passing clouds.6 mph88%29.77 "Hg4 mi
10:30 PM61 °FSprinkles. Passing clouds.7 mph88%29.77 "HgN/A
10:00 PM61 °FPassing clouds.6 mph88%29.80 "HgN/A
9:30 PM61 °FPassing clouds.6 mph88%29.80 "HgN/A
9:00 PM63 °FPassing clouds.5 mph83%29.80 "HgN/A
8:30 PM63 °FPassing clouds.6 mph83%29.80 "HgN/A
8:00 PM63 °FPassing clouds.5 mph83%29.80 "HgN/A
7:30 PM63 °FPassing clouds.5 mph83%29.80 "HgN/A
7:00 PM63 °FPassing clouds.7 mph83%29.80 "HgN/A
6:30 PM63 °FScattered clouds.8 mph83%29.80 "HgN/A
6:00 PM64 °FScattered clouds.6 mph88%29.80 "HgN/A
5:30 PM66 °FScattered clouds.6 mph78%29.80 "HgN/A
5:00 PM68 °FScattered clouds.12 mph73%29.80 "HgN/A
4:30 PM70 °FPassing clouds.9 mph69%29.80 "HgN/A
4:00 PM68 °FPassing clouds.6 mph73%29.80 "HgN/A
3:30 PM68 °FPassing clouds.6 mph73%29.83 "HgN/A
3:00 PM66 °FPassing clouds.9 mph78%29.83 "HgN/A
2:30 PM64 °FPassing clouds.9 mph83%29.83 "HgN/A
2:00 PM66 °FScattered clouds.9 mph78%29.83 "HgN/A
1:30 PM66 °FScattered clouds.10 mph83%29.86 "Hg6 mi
1:00 PM64 °FScattered clouds.15 mph88%29.86 "Hg5 mi
12:30 PM64 °FPartly sunny.13 mph88%29.86 "Hg4 mi
12:00 PM63 °FBroken clouds.12 mph88%29.86 "Hg4 mi
11:30 AM63 °FBroken clouds.13 mph88%29.86 "Hg4 mi
11:00 AM63 °FBroken clouds.15 mph88%29.86 "Hg4 mi
10:30 AM63 °FBroken clouds.12 mph88%29.86 "Hg4 mi
10:00 AM63 °FBroken clouds.9 mph94%29.86 "Hg4 mi
9:30 AM63 °FBroken clouds.9 mph94%29.86 "Hg4 mi
9:00 AM61 °FPartly sunny.9 mph100%29.86 "Hg4 mi
8:30 AM61 °FFog.6 mph94%29.86 "Hg1 mi
8:00 AM59 °FFog.7 mph100%29.86 "Hg0 mi
7:30 AM59 °FLight rain. Fog.5 mph100%29.86 "Hg1 mi
7:00 AM59 °FLight rain. Fog.5 mph100%29.86 "Hg1 mi
6:30 AM59 °FLight rain. Fog.5 mph94%29.86 "Hg1 mi
6:00 AM59 °FSprinkles. Fog.3 mph94%29.86 "Hg1 mi
5:30 AM57 °FFog.3 mph100%29.86 "Hg1 mi
5:00 AM57 °FFog.2 mph100%29.86 "Hg1 mi
4:30 AM59 °FLight rain. Fog.3 mph94%29.86 "Hg1 mi
4:00 AM59 °FSprinkles. Fog.6 mph94%29.86 "Hg1 mi
3:30 AM59 °FFog.6 mph94%29.89 "Hg1 mi
3:00 AM59 °FFog.3 mph94%29.89 "Hg1 mi
2:30 AM57 °FFog.2 mph94%29.89 "Hg1 mi
2:00 AM57 °FFog.2 mph100%29.92 "Hg1 mi
Weather by CustomWeather, © 2014

See weather overviewHow to use our weather pages